This is the latest recevied weather packets stored in our database for station/object OH7GGX-14. If no packets are shown the sender has not sent any weather packets the latest 10 day(s).
| Time | Temp. | Humidity | Pressure | Rain* | Wind** | Luminosity | Snow |
|---|---|---|---|---|---|---|---|
| 1777926095 | 7.78° C | 99% | 999.3 hPa | 0 mm | - | - | - |
| 1777925495 | 7.78° C | 99% | 999.1 hPa | 0 mm | - | - | - |
| 1777924895 | 7.78° C | 99% | 999 hPa | 0 mm | - | - | - |
| 1777924295 | 7.78° C | 99% | 999 hPa | 0.25 mm | - | - | - |
| 1777923095 | 7.78° C | 99% | 999 hPa | 0.25 mm | - | - | - |
| 1777922495 | 7.78° C | 99% | 999 hPa | 0.25 mm | - | - | - |
| 1777919495 | 7.78° C | 99% | 999.3 hPa | 0 mm | - | - | - |
| 1777918895 | 7.78° C | 99% | 999.4 hPa | 0 mm | - | - | - |
| 1777918295 | 7.78° C | 99% | 999.6 hPa | 0 mm | - | - | - |
| 1777917695 | 7.78° C | 99% | 999.6 hPa | 0 mm | - | - | - |
| 1777917095 | 7.78° C | 99% | 999.7 hPa | 0 mm | - | - | - |
| 1777916495 | 7.78° C | 99% | 999.7 hPa | 0 mm | - | - | - |
| 1777914095 | 7.78° C | 99% | 1000.3 hPa | 0.25 mm | - | - | - |
| 1777913495 | 7.78° C | 99% | 1000.2 hPa | 0.25 mm | - | - | - |
| 1777912295 | 7.78° C | 99% | 1000.4 hPa | 0.76 mm | - | - | - |
| 1777911695 | 7.78° C | 99% | 1000.6 hPa | 0.51 mm | - | - | - |
| 1777910495 | 7.78° C | 99% | 1000.9 hPa | 0.76 mm | - | - | - |
| 1777908095 | 7.78° C | 99% | 1001.7 hPa | 1.02 mm | - | - | - |
| 1777907495 | 8.33° C | 99% | 1001.9 hPa | 1.27 mm | - | - | - |
| 1777906895 | 8.33° C | 99% | 1002.2 hPa | 1.02 mm | - | - | - |
| 1777905095 | 8.33° C | 99% | 1002.7 hPa | 0.76 mm | - | - | - |
| 1777903895 | 8.33° C | 99% | 1003 hPa | 1.02 mm | - | - | - |
| 1777900895 | 8.89° C | 98% | 1003.7 hPa | 1.02 mm | - | - | - |
| 1777900295 | 8.89° C | 96% | 1003.7 hPa | 0.76 mm | - | - | - |
| 1777899695 | 8.89° C | 94% | 1003.8 hPa | 0.25 mm | - | - | - |
* Rain latest hour (hover to see other rain measurements)
** Current wind speed in m/s (hover to see current wind gust speed)